Year,Month,Day,Hour,Minute,Value (Times are PST for temperature in C)
2013,04,16,06,57,7.70
2013,04,16,06,58,7.80
2013,04,16,06,59,7.80
2013,04,16,07,00,7.80
2013,04,16,07,01,7.80
2013,04,16,07,02,7.80
2013,04,16,07,03,7.80
2013,04,16,07,04,7.80
2013,04,16,07,05,7.80
2013,04,16,07,06,7.80
2013,04,16,07,07,7.90
2013,04,16,07,08,7.90
2013,04,16,07,09,7.90
2013,04,16,07,10,7.80
2013,04,16,07,11,7.80
2013,04,16,07,12,7.80
2013,04,16,07,13,7.80
2013,04,16,07,14,7.80
2013,04,16,07,15,7.80
2013,04,16,07,16,7.80
2013,04,16,07,17,7.80
2013,04,16,07,18,7.80
2013,04,16,07,19,7.80
2013,04,16,07,35,8.40
2013,04,16,07,36,8.40
2013,04,16,07,37,8.40
2013,04,16,07,38,8.40
2013,04,16,07,39,8.40
2013,04,16,07,40,8.40
2013,04,16,07,41,8.40
2013,04,16,07,42,8.40
2013,04,16,07,43,8.50
2013,04,16,07,44,8.50
2013,04,16,07,45,8.50
2013,04,16,07,46,8.60
2013,04,16,07,47,8.60
2013,04,16,07,48,8.60
2013,04,16,07,49,8.60
2013,04,16,07,50,8.70
2013,04,16,07,51,8.70
2013,04,16,07,52,8.70
2013,04,16,07,53,8.70
2013,04,16,07,54,8.70
2013,04,16,07,55,8.70
2013,04,16,07,56,8.70
2013,04,16,07,57,8.70
2013,04,16,07,58,8.70
2013,04,16,07,59,8.70
2013,04,16,08,00,8.70
2013,04,16,08,01,8.70
2013,04,16,08,02,8.80
2013,04,16,08,03,8.80
2013,04,16,08,04,8.80
2013,04,16,08,05,8.80
2013,04,16,08,06,8.80
2013,04,16,08,07,8.80
2013,04,16,08,08,8.80
2013,04,16,08,09,8.80
2013,04,16,08,10,8.80
2013,04,16,08,11,8.80
2013,04,16,08,12,8.90
2013,04,16,08,13,8.90
2013,04,16,08,14,8.90
2013,04,16,08,15,8.90
2013,04,16,08,16,8.90
2013,04,16,08,17,8.90
2013,04,16,08,18,8.90
2013,04,16,08,19,8.90
2013,04,16,08,20,8.90
2013,04,16,08,21,8.90
2013,04,16,08,22,9.00
2013,04,16,08,23,8.90
2013,04,16,08,24,8.90
2013,04,16,08,25,8.90
2013,04,16,08,26,8.90
2013,04,16,08,27,8.90
2013,04,16,08,28,9.00
2013,04,16,08,29,9.00
2013,04,16,08,30,9.10
2013,04,16,08,31,9.10
2013,04,16,08,32,9.20
2013,04,16,08,33,9.20
2013,04,16,08,34,9.20
2013,04,16,08,35,9.30
2013,04,16,08,36,9.30
2013,04,16,08,37,9.30
2013,04,16,08,38,9.30
2013,04,16,08,39,9.30
2013,04,16,08,40,9.30
2013,04,16,08,41,9.30
2013,04,16,08,42,9.30
2013,04,16,08,43,9.40
2013,04,16,08,44,9.40
2013,04,16,08,45,9.40
2013,04,16,08,46,9.40
2013,04,16,08,47,9.40
2013,04,16,08,48,9.50
2013,04,16,08,49,9.60
2013,04,16,08,50,9.60
2013,04,16,08,51,9.60
2013,04,16,08,52,9.60
2013,04,16,08,53,9.60
2013,04,16,08,54,9.70
2013,04,16,08,55,9.70
2013,04,16,08,56,9.70
2013,04,16,08,57,9.70
2013,04,16,08,58,9.70
2013,04,16,08,59,9.80
2013,04,16,09,00,9.80
2013,04,16,09,01,9.80
2013,04,16,09,02,9.80
2013,04,16,09,03,9.80
2013,04,16,09,04,9.90
2013,04,16,09,05,9.90
2013,04,16,09,06,9.90
2013,04,16,09,07,9.90
2013,04,16,09,08,10.00
2013,04,16,09,09,10.00
2013,04,16,09,10,10.00
2013,04,16,09,11,9.90
2013,04,16,09,12,9.90
2013,04,16,09,13,9.90
2013,04,16,09,14,9.90
2013,04,16,09,15,9.90
2013,04,16,09,16,9.90
2013,04,16,09,17,9.90
2013,04,16,09,18,9.90
2013,04,16,09,19,9.90
2013,04,16,09,20,9.90
2013,04,16,09,21,10.00
2013,04,16,09,22,10.00
2013,04,16,09,23,10.10
2013,04,16,09,24,10.10
2013,04,16,09,25,10.10
2013,04,16,09,26,10.20
2013,04,16,09,27,10.20
2013,04,16,09,28,10.20
2013,04,16,09,29,10.20
2013,04,16,09,30,10.20
2013,04,16,09,31,10.20
2013,04,16,09,32,10.20
2013,04,16,09,33,10.20
2013,04,16,09,34,10.20
2013,04,16,09,35,10.20
2013,04,16,09,36,10.20
2013,04,16,09,37,10.30
2013,04,16,09,38,10.30
2013,04,16,09,39,10.30
2013,04,16,09,40,10.20
2013,04,16,09,41,10.20
2013,04,16,09,42,10.30
2013,04,16,09,43,10.30
2013,04,16,09,44,10.30
2013,04,16,09,45,10.30
2013,04,16,09,46,10.40
2013,04,16,09,47,10.50
2013,04,16,09,48,10.50
2013,04,16,09,49,10.60
2013,04,16,09,50,10.60
2013,04,16,09,51,10.60
2013,04,16,09,52,10.50
2013,04,16,09,53,10.50
2013,04,16,09,54,10.30
2013,04,16,09,55,10.30
2013,04,16,09,56,10.20
2013,04,16,09,57,10.10
2013,04,16,09,58,10.00
2013,04,16,09,59,10.00
2013,04,16,10,00,9.90
2013,04,16,10,01,9.90
2013,04,16,10,02,9.80
2013,04,16,10,03,9.80
2013,04,16,10,04,9.70
2013,04,16,10,05,9.70
2013,04,16,10,06,9.70
2013,04,16,10,07,9.70
2013,04,16,10,08,9.70
2013,04,16,10,09,9.80
2013,04,16,10,10,9.80
2013,04,16,10,11,9.90
2013,04,16,10,12,9.90
2013,04,16,10,13,9.90
2013,04,16,10,14,9.90
2013,04,16,10,15,9.90
2013,04,16,10,16,9.90
2013,04,16,10,17,9.90
2013,04,16,10,18,9.80
2013,04,16,10,19,9.80
2013,04,16,10,20,9.80
2013,04,16,10,21,9.80
2013,04,16,10,22,9.80
2013,04,16,10,23,9.80
2013,04,16,10,24,9.80
2013,04,16,10,25,9.80
2013,04,16,10,26,9.80
2013,04,16,10,27,9.80
2013,04,16,10,28,9.80
2013,04,16,10,29,9.80
2013,04,16,10,30,9.80
2013,04,16,10,31,9.80
2013,04,16,10,32,9.80
2013,04,16,10,33,9.80
2013,04,16,10,34,9.80
2013,04,16,10,35,9.80
2013,04,16,10,36,9.80
2013,04,16,10,37,9.80
2013,04,16,10,38,9.80
2013,04,16,10,39,9.90
2013,04,16,10,40,9.90
2013,04,16,10,41,9.80
2013,04,16,10,42,9.80
2013,04,16,10,43,9.70
2013,04,16,10,44,9.80
2013,04,16,10,45,9.70
2013,04,16,10,46,9.70
2013,04,16,10,47,9.70
2013,04,16,10,48,9.70
2013,04,16,10,49,9.70
2013,04,16,10,50,9.70
2013,04,16,10,51,9.70
2013,04,16,10,52,9.70
2013,04,16,10,53,9.70
2013,04,16,10,54,9.70
2013,04,16,10,55,9.70
2013,04,16,10,56,9.80
2013,04,16,10,57,9.80
2013,04,16,10,58,9.80
2013,04,16,10,59,9.70
2013,04,16,11,00,9.70
2013,04,16,11,01,9.80
2013,04,16,11,02,9.90
2013,04,16,11,03,10.00
2013,04,16,11,04,10.00
2013,04,16,11,05,9.90
2013,04,16,11,06,9.80
2013,04,16,11,07,9.80
2013,04,16,11,08,9.80
2013,04,16,11,09,9.80
2013,04,16,11,10,9.80
2013,04,16,11,11,9.80
2013,04,16,11,12,9.70
2013,04,16,11,13,9.70
2013,04,16,11,14,9.70
2013,04,16,11,15,9.80
2013,04,16,11,16,9.80
2013,04,16,11,17,9.80
2013,04,16,11,18,9.70
2013,04,16,11,19,9.80
2013,04,16,11,20,9.80
2013,04,16,11,21,9.80
2013,04,16,11,22,9.80
2013,04,16,11,23,9.80
2013,04,16,11,24,9.80
2013,04,16,11,25,9.80
2013,04,16,11,26,9.80
2013,04,16,11,27,9.80
2013,04,16,11,28,9.90
2013,04,16,11,29,9.90
2013,04,16,11,30,10.00
2013,04,16,11,31,10.00
2013,04,16,11,32,10.10
2013,04,16,11,33,10.10
2013,04,16,11,34,10.10
2013,04,16,11,35,10.10
2013,04,16,11,36,10.10
2013,04,16,11,37,10.00
2013,04,16,11,38,10.00
2013,04,16,11,39,10.00
2013,04,16,11,40,9.90
2013,04,16,11,41,9.90
2013,04,16,11,42,9.90
2013,04,16,11,43,10.00
2013,04,16,11,44,10.00
2013,04,16,11,45,10.00
2013,04,16,11,46,10.00
2013,04,16,11,47,10.10
2013,04,16,11,48,10.10
2013,04,16,11,49,10.10
2013,04,16,11,50,10.20
2013,04,16,11,51,10.20
2013,04,16,11,52,10.20
2013,04,16,11,53,10.20
2013,04,16,11,54,10.20
2013,04,16,11,55,10.20
2013,04,16,11,56,10.20
2013,04,16,11,57,10.20
2013,04,16,11,58,10.20
2013,04,16,11,59,10.20
2013,04,16,12,00,10.10
2013,04,16,12,01,10.20
2013,04,16,12,02,10.20
2013,04,16,12,03,10.30
2013,04,16,12,04,10.30
2013,04,16,12,05,10.30
2013,04,16,12,06,10.30
2013,04,16,12,07,10.30
2013,04,16,12,08,10.30
2013,04,16,12,09,10.30
2013,04,16,12,10,10.30
2013,04,16,12,11,10.30
2013,04,16,12,12,10.30
2013,04,16,12,13,10.30
2013,04,16,12,14,10.40
2013,04,16,12,15,10.50
2013,04,16,12,16,10.50
2013,04,16,12,17,10.50
2013,04,16,12,18,10.40
2013,04,16,12,19,10.40
2013,04,16,12,20,10.50
2013,04,16,12,21,10.50
2013,04,16,12,22,10.60
2013,04,16,12,23,10.60
2013,04,16,12,24,10.60
2013,04,16,12,25,10.60
2013,04,16,12,26,10.60
2013,04,16,12,27,10.70
2013,04,16,12,28,10.70
2013,04,16,12,29,10.70
2013,04,16,12,30,10.70
2013,04,16,12,31,10.70
2013,04,16,12,32,10.70
2013,04,16,12,33,10.70
2013,04,16,12,34,10.70
2013,04,16,12,35,10.70
2013,04,16,12,36,10.70
2013,04,16,12,37,10.80
2013,04,16,12,38,10.90
2013,04,16,12,39,10.90
2013,04,16,12,40,10.90
2013,04,16,12,41,10.80
2013,04,16,12,42,10.80
2013,04,16,12,43,10.80
2013,04,16,12,44,10.80
2013,04,16,12,45,10.80
2013,04,16,12,46,10.80
2013,04,16,12,47,10.80
2013,04,16,12,48,10.80
2013,04,16,12,49,10.90
2013,04,16,12,50,10.90
2013,04,16,12,51,10.90
2013,04,16,12,52,10.90
2013,04,16,12,53,10.90
2013,04,16,12,54,10.90
2013,04,16,12,55,10.90
2013,04,16,12,56,11.00
2013,04,16,12,57,11.10
2013,04,16,12,58,11.20
2013,04,16,12,59,11.30
2013,04,16,13,00,11.30
2013,04,16,13,01,11.40
2013,04,16,13,02,11.40
2013,04,16,13,03,11.40
2013,04,16,13,04,11.40
2013,04,16,13,05,11.40
2013,04,16,13,06,11.40
2013,04,16,13,07,11.30
2013,04,16,13,08,11.30
2013,04,16,13,09,11.20
2013,04,16,13,10,11.20
2013,04,16,13,11,11.20
2013,04,16,13,12,11.10
2013,04,16,13,13,11.10
2013,04,16,13,14,11.00
2013,04,16,13,15,11.00
2013,04,16,13,16,10.90
2013,04,16,13,17,10.90
2013,04,16,13,18,10.90
2013,04,16,13,19,10.90
2013,04,16,13,20,10.90
2013,04,16,13,21,10.90
2013,04,16,13,22,10.90
2013,04,16,13,23,10.90
2013,04,16,13,24,10.90
2013,04,16,13,25,11.00
2013,04,16,13,26,11.00
2013,04,16,13,27,11.00
2013,04,16,13,28,11.00
2013,04,16,13,29,11.00
2013,04,16,13,30,11.10
2013,04,16,13,31,11.10
2013,04,16,13,32,11.10
2013,04,16,13,33,11.10
2013,04,16,13,34,11.10
2013,04,16,13,35,11.10
2013,04,16,13,36,11.10
2013,04,16,13,37,11.10
2013,04,16,13,38,11.20
2013,04,16,13,39,11.20
2013,04,16,13,40,11.20
2013,04,16,13,41,11.20
2013,04,16,13,42,11.20
2013,04,16,13,43,11.20
2013,04,16,13,44,11.30
2013,04,16,13,45,11.40
2013,04,16,13,46,11.50
2013,04,16,13,47,11.50
2013,04,16,13,48,11.60
2013,04,16,13,49,11.60
2013,04,16,13,50,11.60
2013,04,16,13,51,11.60
2013,04,16,13,52,11.60
2013,04,16,13,53,11.60
2013,04,16,13,54,11.70
2013,04,16,13,55,11.70
2013,04,16,13,56,11.70
2013,04,16,13,57,11.60
2013,04,16,13,58,11.60
2013,04,16,13,59,11.50
2013,04,16,14,00,11.50
2013,04,16,14,01,11.40
2013,04,16,14,02,11.30
2013,04,16,14,03,11.20
2013,04,16,14,04,11.20
2013,04,16,14,05,11.20
2013,04,16,14,06,11.20
2013,04,16,14,07,11.20
2013,04,16,14,08,11.30
2013,04,16,14,09,11.30
2013,04,16,14,10,11.40
2013,04,16,14,11,11.40
2013,04,16,14,12,11.40
2013,04,16,14,13,11.50
2013,04,16,14,14,11.60
2013,04,16,14,15,11.60
2013,04,16,14,16,11.70
2013,04,16,14,17,11.70
2013,04,16,14,18,11.80
2013,04,16,14,19,11.90
2013,04,16,14,20,12.00
2013,04,16,14,21,12.00
2013,04,16,14,22,12.10
2013,04,16,14,23,12.00
2013,04,16,14,24,11.90
2013,04,16,14,25,11.80
2013,04,16,14,26,11.80
2013,04,16,14,27,11.80
2013,04,16,14,28,11.70
2013,04,16,14,29,11.70
2013,04,16,14,30,11.80
2013,04,16,14,31,11.80
2013,04,16,14,32,11.80
2013,04,16,14,33,11.80
2013,04,16,14,34,11.80
2013,04,16,14,35,11.80
2013,04,16,14,36,11.70
2013,04,16,14,37,11.70
2013,04,16,14,38,11.70
2013,04,16,14,39,11.70
2013,04,16,14,40,11.70
2013,04,16,14,41,11.80
2013,04,16,14,42,11.80
2013,04,16,14,43,11.90
2013,04,16,14,44,11.90
2013,04,16,14,45,11.90
2013,04,16,14,46,11.90
2013,04,16,14,47,11.80
2013,04,16,14,48,11.80
2013,04,16,14,49,11.80
2013,04,16,14,50,11.70
2013,04,16,14,51,11.70
2013,04,16,14,52,11.70
2013,04,16,14,53,11.70
2013,04,16,14,54,11.70
2013,04,16,14,55,11.60
2013,04,16,14,56,11.60
2013,04,16,14,57,11.60
2013,04,16,14,58,11.70
2013,04,16,14,59,11.70
2013,04,16,15,00,11.70
2013,04,16,15,01,11.70
2013,04,16,15,02,11.70
2013,04,16,15,03,11.70
2013,04,16,15,04,11.80
2013,04,16,15,05,11.80
2013,04,16,15,06,11.80
2013,04,16,15,07,11.80
2013,04,16,15,08,11.80
2013,04,16,15,09,11.80
2013,04,16,15,10,11.90
2013,04,16,15,11,11.90
2013,04,16,15,12,11.90
2013,04,16,15,13,12.00
2013,04,16,15,14,12.10
2013,04,16,15,15,12.10
2013,04,16,15,16,12.20
2013,04,16,15,17,12.30
2013,04,16,15,18,12.30
2013,04,16,15,19,12.30
2013,04,16,15,20,12.30
2013,04,16,15,21,12.30
2013,04,16,15,22,12.30
2013,04,16,15,23,12.30
2013,04,16,15,24,12.40
2013,04,16,15,25,12.40
2013,04,16,15,26,12.40
2013,04,16,15,27,12.40
2013,04,16,15,28,12.50
2013,04,16,15,29,12.40
2013,04,16,15,30,12.40
2013,04,16,15,31,12.40
2013,04,16,15,32,12.40
2013,04,16,15,33,12.50
2013,04,16,15,34,12.50
2013,04,16,15,35,12.60
2013,04,16,15,36,12.60
2013,04,16,15,37,12.60
2013,04,16,15,38,12.60
2013,04,16,15,39,12.70
2013,04,16,15,40,12.70
2013,04,16,15,41,12.70
2013,04,16,15,42,12.70
2013,04,16,15,43,12.70
2013,04,16,15,44,12.70
2013,04,16,15,45,12.70
2013,04,16,15,46,12.70
2013,04,16,15,47,12.70
2013,04,16,15,48,12.60
2013,04,16,15,49,12.60
2013,04,16,15,50,12.60
2013,04,16,15,51,12.70
2013,04,16,15,52,12.70
2013,04,16,15,53,12.70
2013,04,16,15,54,12.70
2013,04,16,15,55,12.80
2013,04,16,15,56,12.80
2013,04,16,15,57,12.90
2013,04,16,15,58,12.90
2013,04,16,15,59,13.00
2013,04,16,16,00,13.10
2013,04,16,16,01,13.10
2013,04,16,16,02,13.10
2013,04,16,16,03,13.10
2013,04,16,16,04,13.10
2013,04,16,16,05,13.20
2013,04,16,16,06,13.20
2013,04,16,16,07,13.30
2013,04,16,16,08,13.30
2013,04,16,16,09,13.40
2013,04,16,16,10,13.40
2013,04,16,16,11,13.50
2013,04,16,16,12,13.40
2013,04,16,16,13,13.40
2013,04,16,16,14,13.40
2013,04,16,16,15,13.40
2013,04,16,16,16,13.40
2013,04,16,16,17,13.40
2013,04,16,16,18,13.40
2013,04,16,16,19,13.40
2013,04,16,16,20,13.50
2013,04,16,16,21,13.50
2013,04,16,16,22,13.60
2013,04,16,16,23,13.60
2013,04,16,16,24,13.60
2013,04,16,16,25,13.50
2013,04,16,16,26,13.40
2013,04,16,16,27,13.30
2013,04,16,16,28,13.30
2013,04,16,16,29,13.20
2013,04,16,16,30,13.20
2013,04,16,16,31,13.20
2013,04,16,16,32,13.20
2013,04,16,16,33,13.20
2013,04,16,16,34,13.10
2013,04,16,16,35,13.20
2013,04,16,16,36,13.20
2013,04,16,16,37,13.20
2013,04,16,16,38,13.20
2013,04,16,16,39,13.20
2013,04,16,16,40,13.20
2013,04,16,16,41,13.20
2013,04,16,16,42,13.30
2013,04,16,16,43,13.30
2013,04,16,16,44,13.30
2013,04,16,16,45,13.30
2013,04,16,16,46,13.40
2013,04,16,16,47,13.40
2013,04,16,16,48,13.30
2013,04,16,16,49,13.40
2013,04,16,16,50,13.30
2013,04,16,16,51,13.40
2013,04,16,16,52,13.40
2013,04,16,16,53,13.40
2013,04,16,16,54,13.40
2013,04,16,16,55,13.40
2013,04,16,16,56,13.40
2013,04,16,16,57,13.40
2013,04,16,16,58,13.40
2013,04,16,16,59,13.40
2013,04,16,17,00,13.50
2013,04,16,17,01,13.50
2013,04,16,17,02,13.60
2013,04,16,17,03,13.60
2013,04,16,17,04,13.60
2013,04,16,17,05,13.60
2013,04,16,17,06,13.60
2013,04,16,17,07,13.60
2013,04,16,17,08,13.60
2013,04,16,17,09,13.70
2013,04,16,17,10,13.70
2013,04,16,17,11,13.80
2013,04,16,17,12,13.90
2013,04,16,17,13,14.00
2013,04,16,17,14,14.00
2013,04,16,17,15,14.10
2013,04,16,17,16,14.20
2013,04,16,17,17,14.20
2013,04,16,17,18,14.20
2013,04,16,17,19,14.20
2013,04,16,17,20,14.10
2013,04,16,17,21,14.10
2013,04,16,17,22,14.00
2013,04,16,17,23,14.00
2013,04,16,17,24,14.00
2013,04,16,17,25,14.00
2013,04,16,17,26,13.90
2013,04,16,17,27,14.00
2013,04,16,17,28,14.00
2013,04,16,17,29,14.10
2013,04,16,17,30,14.10
2013,04,16,17,31,14.10
2013,04,16,17,32,14.10
2013,04,16,17,33,14.10
2013,04,16,17,34,14.00
2013,04,16,17,35,14.00
2013,04,16,17,36,14.00
2013,04,16,17,37,14.10
2013,04,16,17,38,14.10
2013,04,16,17,39,14.10
2013,04,16,17,40,14.10
2013,04,16,17,41,14.20
2013,04,16,17,42,14.20
2013,04,16,17,43,14.20
2013,04,16,17,44,14.20
2013,04,16,17,45,14.10
2013,04,16,17,46,14.10
2013,04,16,17,47,14.10
2013,04,16,17,48,14.00
2013,04,16,17,49,14.00
2013,04,16,17,50,13.90
2013,04,16,17,51,14.00
2013,04,16,17,52,14.00
2013,04,16,17,53,14.00
2013,04,16,17,54,14.10
2013,04,16,17,55,14.10
2013,04,16,17,56,14.20
2013,04,16,17,57,14.20
2013,04,16,17,58,14.20
2013,04,16,17,59,14.20
2013,04,16,18,00,14.20
2013,04,16,18,01,14.20
2013,04,16,18,02,14.20
2013,04,16,18,03,14.20
2013,04,16,18,04,14.20
2013,04,16,18,05,14.20
2013,04,16,18,06,14.10
2013,04,16,18,07,14.10
2013,04,16,18,08,14.10
2013,04,16,18,09,14.00
2013,04,16,18,10,14.00
2013,04,16,18,11,14.00
2013,04,16,18,12,14.00
2013,04,16,18,13,14.00
2013,04,16,18,14,14.10
2013,04,16,18,15,14.10
2013,04,16,18,16,14.10
2013,04,16,18,17,14.10
2013,04,16,18,18,14.10
2013,04,16,18,19,14.10
2013,04,16,18,20,14.20
2013,04,16,18,21,14.20
2013,04,16,18,22,14.30
2013,04,16,18,23,14.30
2013,04,16,18,24,14.30
2013,04,16,18,25,14.30
2013,04,16,18,26,14.30
2013,04,16,18,27,14.30
2013,04,16,18,28,14.30
2013,04,16,18,29,14.30
2013,04,16,18,30,14.30
2013,04,16,18,31,14.30
2013,04,16,18,32,14.40
2013,04,16,18,33,14.40
2013,04,16,18,34,14.50
2013,04,16,18,35,14.50
2013,04,16,18,36,14.60
2013,04,16,18,37,14.60
2013,04,16,18,38,14.60
2013,04,16,18,39,14.70
2013,04,16,18,40,14.70
2013,04,16,18,41,14.70
2013,04,16,18,42,14.70
2013,04,16,18,43,14.70
2013,04,16,18,44,14.70
2013,04,16,18,45,14.70
2013,04,16,18,46,14.70
2013,04,16,18,47,14.70
2013,04,16,18,48,14.70
2013,04,16,18,49,14.70
2013,04,16,18,50,14.70
2013,04,16,18,51,14.70
2013,04,16,18,52,14.70
2013,04,16,18,53,14.70
2013,04,16,18,54,14.70
2013,04,16,18,55,14.70
2013,04,16,18,56,14.60
2013,04,16,18,57,14.60
2013,04,16,18,58,14.50
2013,04,16,18,59,14.50
2013,04,16,19,00,14.40
2013,04,16,19,01,14.40
2013,04,16,19,02,14.40
2013,04,16,19,03,14.40
2013,04,16,19,04,14.40
2013,04,16,19,05,14.50
2013,04,16,19,06,14.50
2013,04,16,19,07,14.50
2013,04,16,19,08,14.50
2013,04,16,19,09,14.50
2013,04,16,19,10,14.40
2013,04,16,19,11,14.40
2013,04,16,19,12,14.40
2013,04,16,19,13,14.40
2013,04,16,19,14,14.40
2013,04,16,19,15,14.40
2013,04,16,19,16,14.40
2013,04,16,19,17,14.40
2013,04,16,19,18,14.40
2013,04,16,19,19,14.40
2013,04,16,19,20,14.40
2013,04,16,19,21,14.30
2013,04,16,19,22,14.30
2013,04,16,19,23,14.30
2013,04,16,19,24,14.30
2013,04,16,19,25,14.30
2013,04,16,19,26,14.30
2013,04,16,19,27,14.30
2013,04,16,19,28,14.30
2013,04,16,19,29,14.30
2013,04,16,19,30,14.30
2013,04,16,19,31,14.30
2013,04,16,19,32,14.30
2013,04,16,19,33,14.30
2013,04,16,19,34,14.30
2013,04,16,19,35,14.30
2013,04,16,19,36,14.30
2013,04,16,19,37,14.30
2013,04,16,19,38,14.30
2013,04,16,19,39,14.30
2013,04,16,19,40,14.30
2013,04,16,19,41,14.30
2013,04,16,19,42,14.30
2013,04,16,19,43,14.30
2013,04,16,19,44,14.30
2013,04,16,19,45,14.20
2013,04,16,19,46,14.20
2013,04,16,19,47,14.20
2013,04,16,19,48,14.20
2013,04,16,19,49,14.20
2013,04,16,19,50,14.20
2013,04,16,19,51,14.10
2013,04,16,19,52,14.10
2013,04,16,19,53,14.10
2013,04,16,19,54,14.10
2013,04,16,19,55,14.10
2013,04,16,19,56,14.00
2013,04,16,19,57,13.90
2013,04,16,19,58,13.90
2013,04,16,19,59,13.80
2013,04,16,20,00,13.70
2013,04,16,20,01,13.50
2013,04,16,20,02,13.40
2013,04,16,20,03,13.30
2013,04,16,20,04,13.20
2013,04,16,20,05,13.10
2013,04,16,20,06,13.00
2013,04,16,20,07,12.90
2013,04,16,20,08,12.80
2013,04,16,20,09,12.70
2013,04,16,20,10,12.60
2013,04,16,20,11,12.50
2013,04,16,20,12,12.40
2013,04,16,20,13,12.30
2013,04,16,20,14,12.30
2013,04,16,20,15,12.30
2013,04,16,20,16,12.20
2013,04,16,20,17,12.20
2013,04,16,20,18,12.20
2013,04,16,20,19,12.20
2013,04,16,20,20,12.20
2013,04,16,20,21,12.20
2013,04,16,20,22,12.20
2013,04,16,20,23,12.20
2013,04,16,20,24,12.20
2013,04,16,20,25,12.20
2013,04,16,20,26,12.20
